Peoria, IL

12:27 PM CST on November 20, 2017 (GMT -0600)
Greater Peoria Regional

Weather History for KPIA - March, 2014

Change the Weather History Date:

Friday, March 21, 2014

  Actual Average Record
Temperature  
Mean Temperature 50 °F 43 °F  
Max Temperature 63 °F 53 °F 87 °F (1907)
Min Temperature 36 °F 33 °F 9 °F (1960)
Degree Days  
Heating Degree Days 15 22  
Month to date heating degree days 668 554  
Since 1 July heating degree days 5847 5070  
Cooling Degree Days 0 0  
Month to date cooling degree days 0 0  
Year to date cooling degree days 0 0  
Moisture  
Dew Point 33 °F    
Average Humidity 52    
Maximum Humidity 70    
Minimum Humidity 34    
Precipitation  
Precipitation 0.00 in 0.09 in 0.97 in (1913)
Month to date precipitation 1.42 1.81  
Year to date precipitation 6.29 5.38  
Snow  
Snow 0.00 in 0.00 in 5.00 in (2006)
Month to date snowfall 6.7 2.1  
Since 1 July snowfall 56.9 23.4  
Snow Depth 0.00 in    
Sea Level Pressure  
Sea Level Pressure 29.87 in    
Wind  
Wind Speed 10 mph (ESE)    
Max Wind Speed 20 mph    
Max Gust Speed 31 mph    
Visibility 10 miles    
Events      
T = Trace of Precipitation, MM = Missing Value Source: NWS Daily Summary

Daily Weather History Graph

Daily Weather History Graph

Search for Another Location

Airport or City:

Trip Planner

Search our weather history database for the weather conditions in past years. The results will help you decide how hot, cold, wet, or windy it might be!

Date:

Astronomy

Mar. 21, 2014 Rise Set
Actual Time 7:00 AM CDT 7:11 PM CDT
Civil Twilight 6:33 AM CDT 7:39 PM CDT
Nautical Twilight 6:01 AM CDT 8:11 PM CDT
Astronomical Twilight 5:28 AM CDT 8:43 PM CDT
Moon No Moon Rise 9:50 AM CDT (3/21)
Length of Visible Light 13h 06m
Length of Day
12h 11m
Waning Gibbous, 75% of the Moon is Illuminated
Mar 21
Waning Gibbous
Mar 23
Last Quarter
Mar 30
New
Apr 7
First Quarter
Apr 15
Full

Hourly Weather History & Observations

Time (CDT) Temp. Windchill Dew Point Humidity Pressure Visibility Wind Dir Wind Speed Gust Speed Precip Events Conditions
12:54 AM 43.0 °F 38.2 °F 30.9 °F 62% 29.97 in 10.0 mi ENE 8.1 mph - N/A   Overcast
1:54 AM 42.1 °F 34.9 °F 30.9 °F 65% 29.96 in 10.0 mi East 13.8 mph - N/A   Mostly Cloudy
2:54 AM 39.9 °F 32.9 °F 30.0 °F 68% 29.94 in 10.0 mi East 11.5 mph - N/A   Clear
3:54 AM 39.9 °F 32.1 °F 28.9 °F 65% 29.93 in 10.0 mi East 13.8 mph - N/A   Clear
4:54 AM 39.0 °F 32.3 °F 28.9 °F 67% 29.91 in 10.0 mi East 10.4 mph - N/A   Clear
5:54 AM 39.0 °F 32.8 °F 28.9 °F 67% 29.89 in 10.0 mi East 9.2 mph - N/A   Clear
6:54 AM 37.0 °F 32.4 °F 28.0 °F 70% 29.91 in 10.0 mi East 5.8 mph - N/A   Clear
7:54 AM 39.0 °F 34.8 °F 30.0 °F 70% 29.91 in 10.0 mi East 5.8 mph - N/A   Clear
8:54 AM 43.0 °F 38.2 °F 32.0 °F 65% 29.91 in 10.0 mi ESE 8.1 mph - N/A   Clear
9:54 AM 46.9 °F - 33.1 °F 59% 29.89 in 10.0 mi SSE 5.8 mph - N/A   Clear
10:54 AM 52.0 °F - 35.1 °F 53% 29.86 in 10.0 mi SSE 9.2 mph - N/A   Clear
11:54 AM 55.0 °F - 35.1 °F 47% 29.85 in 10.0 mi SSW 12.7 mph - N/A   Clear
12:54 PM 57.0 °F - 36.0 °F 45% 29.83 in 10.0 mi SW 6.9 mph - N/A   Clear
1:54 PM 60.1 °F - 35.1 °F 39% 29.80 in 10.0 mi SSW 9.2 mph - N/A   Clear
2:54 PM 60.1 °F - 33.1 °F 36% 29.77 in 10.0 mi SW 8.1 mph - N/A   Mostly Cloudy
3:54 PM 63.0 °F - 35.1 °F 35% 29.74 in 10.0 mi SSW 10.4 mph - N/A   Clear
4:54 PM 62.1 °F - 33.1 °F 34% 29.73 in 10.0 mi West 10.4 mph - N/A   Overcast
5:54 PM 61.0 °F - 35.1 °F 38% 29.75 in 10.0 mi West 8.1 mph - N/A   Mostly Cloudy
6:54 PM 57.0 °F - 37.0 °F 47% 29.78 in 10.0 mi NW 16.1 mph 25.3 mph N/A   Overcast
7:54 PM 53.1 °F - 35.1 °F 50% 29.82 in 10.0 mi NNW 15.0 mph 24.2 mph N/A   Overcast
8:54 PM 50.0 °F - 35.1 °F 57% 29.85 in 10.0 mi NW 6.9 mph - N/A   Partly Cloudy
9:54 PM 48.0 °F - 35.1 °F 61% 29.89 in 10.0 mi WNW 9.2 mph - N/A   Clear
10:54 PM 44.1 °F 36.8 °F 35.1 °F 71% 29.94 in 10.0 mi NNW 16.1 mph 27.6 mph N/A   Partly Cloudy
11:45 PM 39.9 °F 33.9 °F 32.0 °F 73% 29.97 in 10.0 mi NW 9.2 mph 21.9 mph N/A   Mostly Cloudy
11:54 PM 39.9 °F 32.5 °F 30.9 °F 70% 29.98 in 10.0 mi NW 12.7 mph 26.5 mph N/A   Overcast